DW9614 Weather Reports


time (UTC)temp
F
wind
direction
speed
knots
gust
knots
rain 1hr
in
rain 24hr
in
rain mn
in
humidity
%
barometer
mb
20260504023059 61 208 3.5 8.7 0.00 0.00 0.00 61 1008.8
20260504021559 62 198 5.2 10.4 0.00 0.00 0.00 60 1008.8
20260504020124 62 219 6.1 13.0 0.00 0.00 0.00 59 1008.6
20260504014601 62 245 4.3 9.6 0.00 0.00 0.00 59 1008.5
20260504013118 62 179 3.5 9.6 0.00 0.00 0.00 58 1008.3
20260504011556 63 217 5.2 12.2 0.00 0.00 0.00 57 1008.1
20260504010057 63 184 5.2 11.3 0.00 0.00 0.00 56 1008.0
20260504004554 64 203 6.1 9.6 0.00 0.00 0.00 53 1008.1
20260504003054 64 213 6.1 12.2 0.00 0.00 0.00 52 1008.1
20260504001554 65 208 5.2 10.4 0.00 0.00 0.00 51 1008.0
20260504000052 65 209 6.1 13.9 0.00 0.00 0.00 50 1008.2
20260503234550 66 213 7.0 12.2 0.00 0.00 0.00 50 1008.2
20260503233049 66 197 7.8 14.8 0.00 0.00 0.00 49 1008.3
20260503231548 66 213 6.1 15.6 0.00 0.00 0.00 50 1008.3
20260503230051 66 226 8.7 14.8 0.00 0.00 0.00 49 1008.5
20260503224547 65 207 9.6 14.8 0.00 0.00 0.00 49 1008.7
20260503223044 65 204 6.1 12.2 0.00 0.00 0.00 49 1008.8
20260503221556 65 211 7.8 14.8 0.00 0.00 0.00 49 1008.7
20260503220040 64 173 9.6 16.5 0.00 0.00 0.00 50 1008.5
20260503214541 63 209 7.8 14.8 0.00 0.00 0.00 51 1008.9
20260503213042 63 189 8.7 17.4 0.00 0.00 0.00 53 1008.9
20260503211534 63 229 9.6 16.5 0.00 0.00 0.00 52 1009.1
20260503210032 63 219 10.4 16.5 0.00 0.00 0.00 53 1009.6
20260503204531 63 221 8.7 14.8 0.00 0.00 0.00 53 1009.9
20260503203035 63 209 10.4 17.4 0.00 0.00 0.00 53 1009.9
20260503201529 62 232 11.3 15.6 0.00 0.00 0.00 52 1010.0
20260503200027 62 173 10.4 17.4 0.00 0.00 0.00 51 1010.6
20260503194523 62 205 9.6 16.5 0.00 0.00 0.00 50 1011.0
20260503193124 63 218 9.6 17.4 0.00 0.00 0.00 48 1011.5
20260503191538 62 192 12.2 16.5 0.00 0.00 0.00 49 1011.8
20260503190025 62 219 8.7 14.8 0.00 0.00 0.00 48 1012.5
20260503184513 60 219 9.6 14.8 0.00 0.00 0.00 49 1013.3
20260503183010 61 211 9.6 15.6 0.00 0.00 0.00 48 1013.4
20260503181510 61 225 8.7 14.8 0.00 0.00 0.00 47 1013.6
20260503180010 61 213 10.4 15.6 0.00 0.00 0.00 46 1013.8
20260503174508 62 198 11.3 14.8 0.00 0.00 0.00 46 1013.6
20260503173005 61 214 9.6 15.6 0.00 0.00 0.00 48 1014.1
20260503171502 62 188 7.0 12.2 0.00 0.00 0.00 48 1014.4
20260503170118 61 210 7.0 14.8 0.00 0.00 0.00 50 1014.5
20260503160105 59 219 8.7 14.8 0.00 0.00 0.00 53 1015.9
20260503081555 45 215 4.3 7.0 0.00 0.00 0.00 60 1017.5
20260503080103 45 215 3.5 7.0 0.00 0.00 0.00 60 1017.5
20260503071603 46 213 3.5 6.1 0.00 0.00 0.00 58 1017.7
20260503060140 47 211 1.7 6.1 0.00 0.00 0.00 54 1018.1
20260503054557 47 261 2.6 3.5 0.00 0.00 0.00 54 1018.1
20260503053038 47 273 1.7 3.5 0.00 0.00 0.00 54 1018.1
20260503051535 47 286 0.9 3.5 0.00 0.00 0.00 56 1018.2
20260503050034 47 321 0.9 3.5 0.00 0.00 0.00 56 1018.2
20260503044539 47 335 0.9 2.6 0.00 0.00 0.00 57 1018.2
20260503043041 47 337 0.0 2.6 0.00 0.00 0.00 56 1018.2
20260503041531 46 339 0.0 0.0 0.00 0.00 0.00 58 1018.2
20260503040033 46 339 0.0 0.0 0.00 0.00 0.00 58 1018.2
20260503034530 46 339 0.0 0.0 0.00 0.00 0.00 60 1018.3
20260503033029 46 339 0.0 0.0 0.00 0.00 0.00 61 1018.3
20260503031529 46 339 0.0 0.0 0.00 0.00 0.00 60 1018.5
20260503030034 47 339 0.0 0.0 0.00 0.00 0.00 60 1018.6